Zurück zum Katalog

CZ-4C DEB

AktivLEO
NORAD 43338·DEBRIS·🇨🇳 China

Gestartet Apr 10, 2018 von Jiuquan Satellite Launch Center

Loading…

Nächste Überflüge (nächste 24 Stunden)

TLE

AktuellSource: Space-Track

Epoche: Sep 14, 2026, 07:41 UTC

1 43338U 18034H   26257.32077383 -.00000072  00000-0  24944-4 0  9999
2 43338  63.3917 230.6971 0282825   8.5178 352.0503 13.44727563413846

Verfolge CZ-4C DEB in Echtzeit mit AllMySat

Download on the App Store